User: anonymous   Login
Location: Jetmore Motorplex
(37.9889°N, 99.8876°W)
Time: 18:03:18
(UTC+00:00)
Language:

STARLINK-21 - Orbit

View from above orbital plane
View from above orbital plane
View from above satellite
View from above satellite

Ground track
Ground track

The orbit data is extracted from the following two-line orbital elements,

1 44245C 19029L   20152.49723350  .00881472  00000-0  34545-1 0  1526
2 44245  52.9970 287.2435 0001717 132.1282 343.8768 15.24361128    12
Epoch (UTC): 31 May 2020 11:56:00
Eccentricity: 0.0001717
inclination: 52.9970°
perigee height: 491 km
apogee height: 494 km
right ascension of ascending node: 287.2435°
argument of perigee: 132.1282°
revolutions per day: 15.24361128
mean anomaly at epoch: 343.8768°
orbit number at epoch: 1

The dashed part of the orbit path shows where the satellite is in the earth's shadow,  

DLR